Meteo Giornale » Osservazioni meteo Brasile » Rio Branco
ore: 16:00 - Osservazioni Meteo Rio Branco
Lat. 10° 0' S Lon. 67° 48' W Alt. 142 metri s.l.m.
36 °C
Nuvoloso
Temp. 24 Ore
24 °C
37 °C
Nord
16.7 Km/h
Dew point 20 °C
Umidità 39 %
Visibilità 10 Km
Il sole sorge alle ore 05:33
Il sole tramonta alle ore 17:28
| Data e Ora | Cielo e Fenomeni | T °C | DP °C | Um. % | Pres. hPa | Vis. km | Vento km/h | |
|---|---|---|---|---|---|---|---|---|
| Oggi h: 16:00 | Nuvoloso | 36 | 20 | 39 | 1008 | 10 | N 16.7 | |
| Oggi h: 15:00 | Nuvoloso | 36 | 21 | 41 | 1008 | 10 | N/NO 13 | |
| Oggi h: 14:00 | Nuvoloso | 37 | 20 | 37 | 1009 | 10 | N/NO 18.5 | |
| Oggi h: 13:33 | Nuvoloso | 35 | 19 | 39 | 1010 | 10 | N 22.2 | |
| Oggi h: 13:00 | Nuvoloso | 37 | 21 | 39 | 1010 | 10 | N 14.8 | |
| Oggi h: 12:00 | Nuvoloso | 35 | 21 | 44 | 1011 | 10 | NO 11.1 | |
| Oggi h: 11:00 | Nuvoloso | 35 | 22 | 47 | 1012 | 10 | NO 11.1 | |
| Oggi h: 10:00 | Poco Nuvoloso | 34 | 23 | 52 | 1013 | 10 | O/NO 16.7 | |
| Oggi h: 09:00 | Sereno | 32 | 23 | 59 | 1013 | 10 | O/NO 13 | |
| Oggi h: 08:00 | Sereno | 30 | 23 | 66 | 1013 | 10 | NO 13 | |
| Oggi h: 07:00 | Sereno | 27 | 23 | 78 | 1012 | 10 | O/NO 7.4 | |
| Oggi h: 06:00 | Sereno | 24 | 22 | 88 | 1011 | 10 | N 3.7 | |
| Oggi h: 05:00 | Sereno | 24 | 22 | 88 | 1009 | 10 | N 3.7 | |
| Oggi h: 04:00 | Sereno | 24 | 22 | 88 | 1009 | 10 | N 3.7 | |
| Oggi h: 03:00 | Sereno | 24 | 22 | 88 | 1009 | 10 | N 3.7 | |
| Oggi h: 02:00 | Sereno | 25 | 22 | 83 | 1010 | 10 | N 3.7 | |
| Oggi h: 01:00 | Sereno | 25 | 22 | 83 | 1010 | 10 | N 5.5 | |
| Oggi h: 00:00 | Sereno | 26 | 22 | 78 | 1010 | 10 | N 3.7 | |
| Ieri h: 23:00 | Sereno | 25 | 22 | 83 | 1011 | 10 | N 5.5 | |
| Ieri h: 22:00 | Sereno | 27 | 21 | 69 | 1011 | 10 | N 7.4 | |
| Ieri h: 21:00 | Sereno | 29 | 21 | 62 | 1010 | 10 | N 5.5 | |
| Ieri h: 20:00 | Sereno | 30 | 21 | 58 | 1010 | 10 | N 7.4 | |
| Ieri h: 19:00 | Sereno | 31 | 21 | 55 | 1009 | 10 | N 7.4 | |
| Ieri h: 18:00 | Sereno | 32 | 21 | 52 | 1009 | 10 | N 7.4 | |
| Ieri h: 17:00 | Poco Nuvoloso | 35 | 20 | 41 | 1009 | 10 | N 11.1 | |



